Flag for Australia Weather past 2 weeks in Brisbane, Queensland, Australia

Now
61 °F

Sunny.


Feels Like: 61 °F
Forecast: 58 / 88 °F
Wind: 13 mph from North

Location: Brisbane Airport M. O

Current Time: Oct 1, 2014 at 6:07:48 AM

Latest Report: Oct 1, 2014 at 5:30 AM


Visibility: 10 mi

Pressure: 30.01 "Hg

Humidity: 88%

Dew point: 57 °F

Location of BrisbaneLocation

Historic Weather in Brisbane — Graph

°F

Brisbane temperature yesterday

Maximum temperature yesterday: 75 °F (at 11:00 AM)
Minimum temperature yesterday: 55 °F (at 4:30 AM)
Average temperature yesterday: 67 °F

Past Weeks' High & Low Weather Summary

 TemperatureHumidityPressure
High84 °F (Sep 17, 2:00 PM)100% (Sep 25, 6:00 AM)30.36 "Hg (Sep 25, 6:00 AM)
Low52 °F (Sep 19, 3:30 AM)13% (Sep 18, 1:30 PM)29.83 "Hg (Sep 16, 3:30 PM)
Average66 °F68%30.10 "Hg
* Reported Sep 16 5:00 AM — Oct 1 5:00 AM, Brisbane, Weather by CustomWeather, © 2014

Note: Actual official high and low records may vary slightly from our data, if they occured in-between our weather recording intervals... More about our weather records

Advertising

Brisbane weather history for previous 24 hours

 ConditionsComfort  
Time TempWeatherWind HumidityBarometerVisibility
5:00 AM
Oct 1
61 °FSunny.6 mph88%30.01 "Hg10 mi
4:30 AM61 °FSunny.10 mph88%30.01 "Hg10 mi
4:00 AM63 °FClear.9 mph83%30.01 "Hg10 mi
3:30 AM63 °FClear.12 mph83%30.01 "Hg10 mi
3:00 AM63 °FClear.12 mph83%30.01 "Hg10 mi
2:30 AM63 °FClear.13 mph88%30.01 "Hg10 mi
2:00 AM64 °FClear.15 mph83%30.01 "Hg10 mi
1:30 AM63 °FClear.13 mph88%30.01 "Hg10 mi
1:00 AM64 °FClear.10 mph83%30.04 "Hg10 mi
12:30 AM66 °FClear.12 mph78%30.04 "Hg10 mi
12:00 AM68 °FClear.14 mph73%30.04 "Hg10 mi
11:30 PM
Sep 30
68 °FClear.16 mph78%30.04 "Hg10 mi
11:00 PM68 °FClear.20 mph78%30.04 "Hg10 mi
10:30 PM68 °FClear.17 mph78%30.04 "Hg10 mi
10:00 PM70 °FClear.17 mph78%30.07 "Hg10 mi
9:30 PM68 °FClear.16 mph78%30.07 "Hg10 mi
9:00 PM70 °FClear.16 mph73%30.07 "Hg10 mi
8:30 PM70 °FClear.16 mph73%30.07 "Hg10 mi
8:00 PM70 °FClear.15 mph73%30.07 "Hg10 mi
7:00 PM70 °FClear.17 mph73%30.04 "Hg10 mi
6:30 PM70 °FClear.18 mph73%30.04 "Hg10 mi
6:00 PM70 °FClear.20 mph73%30.04 "Hg10 mi
5:30 PM70 °FClear.17 mph73%30.04 "Hg10 mi
5:00 PM72 °FClear.20 mph69%30.04 "Hg10 mi
4:30 PM72 °FSunny.18 mph65%30.04 "Hg10 mi
4:00 PM73 °FSunny.20 mph65%30.01 "Hg10 mi
3:00 PM73 °FSunny.21 mph61%30.01 "Hg10 mi
2:30 PM73 °FSunny.21 mph65%30.04 "Hg10 mi
2:00 PM73 °FSunny.22 mph61%30.04 "Hg10 mi
1:30 PM75 °FSunny.21 mph54%30.04 "Hg10 mi
1:00 PM75 °FSunny.21 mph57%30.07 "Hg10 mi
12:30 PM75 °FSunny.21 mph57%30.07 "Hg10 mi
12:00 PM75 °FSunny.17 mph54%30.09 "Hg10 mi
11:30 AM75 °FSunny.15 mph54%30.09 "Hg10 mi
11:00 AM75 °FSunny.13 mph50%30.09 "Hg10 mi
10:30 AM73 °FSunny.12 mph50%30.12 "Hg10 mi
10:00 AM72 °FSunny.9 mph53%30.12 "Hg10 mi
9:00 AM70 °FSunny.8 mph57%30.15 "Hg10 mi
8:30 AM70 °FSunny.7 mph57%30.15 "Hg10 mi
8:00 AM66 °FSunny.2 mph64%30.15 "Hg10 mi
7:30 AM66 °FSunny.3 mph68%30.12 "Hg10 mi
7:00 AM63 °FSunny.2 mph83%30.12 "Hg10 mi
6:30 AM59 °FSunny.3 mph88%30.12 "Hg10 mi
6:00 AM55 °FSunny.3 mph94%30.12 "Hg10 mi
Weather by CustomWeather, © 2014

See weather overviewHow to use our weather pages